Flag for Germany Weather past 2 weeks in Neuburg an der Donau, Bavaria, Germany

Now
64 °F

Partly sunny.


Feels Like: 64 °F
Forecast: 59 / 83 °F
Wind: 5 mph from East

Location: Neuburg / Donau

Current Time: Aug 1, 2014 at 10:16:02 AM

Latest Report: Aug 1, 2014 at 9:20 AM


Visibility: N/A

Pressure: 29.95 "Hg

Humidity: 83%

Dew point: 59 °F

Location of Neuburg an der DonauLocation

Historic Weather in Neuburg an der Donau — Graph

°F

Neuburg an der Donau temperature yesterday

Maximum temperature yesterday: 75 °F (at 4:20 PM)
Minimum temperature yesterday: 63 °F (at 5:20 AM)
Average temperature yesterday: 68 °F

Past Weeks' High & Low Weather Summary

 TemperatureHumidityPressure
High91 °F (Jul 19, 4:20 PM)100% (Jul 21, 8:20 PM)30.21 "Hg (Jul 21, 8:20 PM)
Low54 °F (Jul 24, 4:20 AM)23% (Jul 19, 5:20 PM)29.74 "Hg (Jul 29, 3:20 PM)
Average69 °F72%29.93 "Hg
* Reported Jul 17 8:20 AM — Aug 1 8:20 AM, Neuburg an der Donau, Weather by CustomWeather, © 2014

Note: Actual official high and low records may vary slightly from our data, if they occured in-between our weather recording intervals... More about our weather records

Advertising

Neuburg an der Donau weather history for previous 24 hours

 ConditionsComfort  
Time TempWeatherWind HumidityBarometerVisibility
8:20 AM
Aug 1
61 °FPartly sunny.6 mph88%29.95 "HgN/A
7:20 AM59 °FScattered clouds.1 mph88%29.95 "HgN/A
6:20 AM54 °FFog.2 mph100%29.95 "HgN/A
5:20 AM55 °FCool.1 mph100%29.95 "HgN/A
4:20 AM55 °FCool.No wind100%29.95 "HgN/A
3:20 AM57 °FCool.2 mph94%29.98 "HgN/A
2:20 AM57 °FCool.1 mph94%29.98 "HgN/A
1:20 AM61 °FCool.1 mph88%29.98 "HgN/A
12:20 AM59 °FCool.No wind94%29.98 "HgN/A
11:20 PM
Jul 31
63 °FMild.2 mph88%29.98 "HgN/A
10:20 PM63 °FMild.1 mph83%29.98 "HgN/A
9:20 PM68 °FMild.2 mph73%29.98 "HgN/A
8:20 PM72 °FMild.5 mph61%29.98 "HgN/A
7:20 PM73 °FMild.3 mph53%29.98 "HgN/A
6:20 PM73 °FMild.1 mph50%29.98 "HgN/A
5:20 PM73 °FPartly sunny.2 mph53%29.98 "HgN/A
4:20 PM75 °FPartly sunny.2 mph50%29.98 "HgN/A
3:20 PM73 °FPartly sunny.3 mph53%29.98 "HgN/A
2:20 PM73 °FBroken clouds.5 mph53%29.98 "HgN/A
1:20 PM72 °FBroken clouds.2 mph57%30.01 "HgN/A
12:20 PM72 °FScattered clouds.6 mph61%30.01 "HgN/A
11:20 AM70 °FPartly sunny.7 mph64%30.01 "HgN/A
10:20 AM68 °FPartly sunny.6 mph73%30.01 "HgN/A
Weather by CustomWeather, © 2014

See weather overviewHow to use our weather pages